Wind_Speed
13 15 17 18 19 19 19 18 16 15 16 15 13 10 8 5 6 6 7 8 10 12
11 12 12 11 14 15 16 16 16 14 12 9 7 7 7 6 7 7 8 8 10 11
8 10 10 10 10 10 12 14 14 13 11 9 7 5 6 4 6 6 8 8 10 10
8 7 8 9 10 12 13 15 14 12 9 7 7 6 6 4 6 7 8 8 10 11
8 7 6 8 10 12 13 12 11 9 7 6 5 4 5 5 6 7 8 9 9 9
11 10 9 9 9 10 11 10 9 8 6 5 4 4 3 4 6 7 8 8 7 7
13 13 12 12 12 12 11 10 9 7 5 4 4 3 4 5 7 8 9 9 8 10
14 13 13 13 13 12 10 9 7 6 5 4 4 4 5 5 6 7 9 10 11 12
15 15 15 15 14 12 10 8 7 6 6 6 6 5 5 6 7 8 8 9 9 8
17 16 16 16 16 14 12 10 9 8 7 7 7 6 6 5 7 7 7 8 8 8
19 18 17 17 16 15 13 12 10 9 6 7 7 6 5 6 7 8 9 8 9 9
21 20 19 19 18 17 16 15 13 10 7 7 7 7 7 8 10 10 9 8 9 10
20 21 21 21 20 19 18 16 14 12 9 8 9 9 10 11 13 11 10 10 10 10
16 21 21 19 19 19 17 16 15 13 10 11 11 12 13 12 16 15 11 12 12 12
Wind_Direction
265 261 258 253 247 238 232 229 214 195 198 213 221 228 224 243 264 278 276 273 278 279
268 271 270 261 246 232 227 215 206 203 203 206 213 226 231 244 263 273 280 285 285 282
265 261 259 253 246 228 213 204 199 194 193 194 213 248 257 252 267 278 288 295 287 285
247 235 219 208 201 195 189 186 185 186 195 210 232 241 269 279 289 298 300 303 296 293
238 222 198 179 176 176 175 174 181 190 200 211 220 253 271 296 303 313 312 301 296 289
207 202 199 196 186 180 182 185 186 190 195 209 228 244 279 309 321 322 313 302 295 294
205 201 198 193 191 192 192 193 193 197 203 217 232 264 302 323 335 339 328 310 300 305
209 206 203 199 194 191 190 195 198 205 212 220 237 267 284 292 312 311 315 312 286 292
217 208 204 200 194 194 197 204 207 211 220 237 249 251 267 283 296 301 301 303 278 280
220 215 209 203 198 197 202 207 211 215 229 241 246 252 256 271 281 291 286 284 274 241
222 218 212 208 207 206 209 214 217 222 232 252 249 250 249 254 265 286 280 265 257 238
223 217 213 214 213 215 216 214 218 225 237 271 251 246 241 245 260 278 270 253 241 236
228 221 219 221 218 221 221 224 222 222 237 267 264 248 246 242 251 258 257 245 238 238
234 227 227 224 221 221 221 222 223 224 246 265 267 256 247 243 246 253 251 242 244 244
Height
774 776 776 779 781 784 786 790 793 793 797 803 805 806 808 811 812 812 813 814 816 817
771 773 774 777 780 781 784 786 790 793 797 801 804 806 806 806 808 810 811 812 813 813
770 772 774 775 777 779 782 785 788 791 795 798 802 804 806 803 806 806 807 806 809 809
771 773 773 774 776 778 780 783 787 790 793 796 799 799 802 801 802 802 804 804 805 806
770 770 771 772 774 777 779 782 785 787 791 795 795 797 799 799 800 800 800 801 802 802
768 769 770 772 774 777 780 782 784 786 788 791 793 795 796 797 797 797 798 799 799 798
767 769 770 772 774 777 779 781 783 784 786 788 790 792 792 793 794 795 796 796 796 796
766 767 769 771 773 775 778 780 781 782 784 785 787 788 789 791 791 792 793 793 792 793
764 765 766 769 769 771 775 777 779 781 783 785 786 787 788 788 788 789 789 789 790 791
760 761 764 766 766 768 772 774 776 778 780 781 783 784 784 785 786 786 787 788 788 788
755 757 760 762 763 766 768 772 774 776 776 778 779 780 782 783 784 784 785 785 786 787
750 753 755 757 759 763 765 767 770 772 774 774 775 777 778 780 781 782 782 782 783 784
746 748 750 752 756 759 762 764 767 769 771 772 772 774 775 778 778 778 779 780 780 782
742 744 746 749 752 755 758 762 763 764 768 769 768 769 771 773 774 774 775 776 778 779